Location: Innsbruck
(47.2657°N, 11.3914°E)
Time: 20:22:02
(UTC+01:00)

BEESAT 2 - Pass Details

Date: 29 November 2021
Orbit: 498 x 513 km, 64.9° (Epoch: 24 January)

Event Time Altitude Azimuth Distance (km) Brightness Sun altitude
Exits shadow 06:48:33 - 334° (NNW) 2,232 ? -8.3°
Reaches altitude 10° 06:49:55 10° 343° (NNW) 1,753 ? -8.1°
Maximum altitude 06:53:13 25° 40° (NE) 1,071 ? -7.6°
Drops below altitude 10° 06:56:30 10° 97° (E) 1,742 ? -7.0°
Sets 06:58:57 0° 111° (ESE) 2,623 ? -6.7°
